sat.trackr.live / text

‹ back to catalog

STARLINK-6170

NORAD 57129 · 2023-090AE

PAYLOAD ACTIVE UNKNOWN

§ Identity

Operator
Country
US
Launch date
2023-06-23
Launch site
AFETR
Launch vehicle
Mass (kg)
RCS (m²)

Purposes: comms

External: N2YO · Heavens-Above · Gunter

§ Orbital elements

Epoch: 2026-05-24T13:49:59.133504Z

Period
94.27 min
Inclination
43.0006°
Eccentricity
0.0001263
Mean motion
15.27574969 rev/d
Perigee alt
482.2 km
Apogee alt
483.9 km
Semi-major
6,861.2 km
B*
6.1856e-7
RAAN
195.2595°
Arg perigee
269.3821°
Mean anomaly
90.6886°
Rev number
16,195

§ Raw data

STARLINK-61701 57129U 23090AE  26144.57637886 -.00000245  00000+0  61856-6 0  99982 57129  43.0006 195.2595 0001263 269.3821  90.6886 15.27574969161952

JSON: /api/v1/satellites/57129 · /tle

For live sub-satellite position, see the globe view (requires WebGL).

§ Visibility from observer

Set your observer location to see the next 7 days of passes ≥ 10°. The values pass through the URL so the page stays shareable.

No JS? Fill the form by hand. The geolocation button needs JavaScript.